Regional Weather Roundup
Issued by NWS Goodland, KS

Home | Current Version | Previous Version | Graphics & Text | Print | Product List | Glossary On
Versions: 1 2 3 4 5 6 7 8 9 10 11 12 13 14 15 16 17 18 19 20 21 22 23 24 25 26 27 28 29 30 31 32 33 34 35 36 37 38 39 40 41 42 43 44 45 46 47 48 49 50
000
ASUS43 KGLD 220408
RWRGLD

GOODLAND FORECAST AREA HOURLY WEATHER ROUNDUP
NATIONAL WEATHER SERVICE GOODLAND KS
1000 PM MDT THU AUG 21 2014

...OFFICIAL OBSERVATIONS...

CITY           SKY/WX    TMP DP  RH WIND       PRES   REMARKS
GOODLAND KS    CLEAR     72  54  53 E5        30.00S
HILL CITY KS   CLEAR     81  67  62 N8        29.89S
IMPERIAL NEB   CLEAR     70  60  70 E7        29.99R
MCCOOK NEB     CLEAR     73  65  75 E6        29.93F
AKRON CO       LGT RAIN  66  58  75 W14G29    30.15R
BURLINGTON CO  CLEAR     69  48  47 E6        30.05R
LIMON CO       MOCLDY    66  54  65 N13G21    30.15R
$$

...UNOFFICIAL OBSERVATIONS...

CITY           SKY/WX    TMP DP  RH WIND       PRES   REMARKS
COLBY KS       CLEAR     73  63  68 N9        29.98R
LENORA KS        N/A     78  32  18 CALM        N/A
NORTON KS      CLEAR     75  66  73 CALM      29.91R
SHARON SPRINGS   N/A     76  56  49 CALM        N/A
WAKEENEY KS      N/A     78  64  61 MISG        N/A
KIT CARSON CO    N/A     74  49  40 MISG        N/A
YUMA CO          N/A     72  56  56 CALM        N/A
$$


USA.gov is the U.S. government's official web portal to all federal, state and local government web resources and services.